KI5NYZ-13 Weather Reports


time (UTC)temp
C
wind
direction
speed
KPH
gust
KPH
rain 1hr
cm
rain 24hr
cm
rain mn
cm
humidity
%
barometer
mb
20260502220303 19 314 6.4 6.4 0.00 0.03 0.00 37 1018.0
20260502213303 18 304 8.0 8.0 0.00 0.03 0.00 38 1018.6
20260502210301 18 229 1.6 4.8 0.00 0.03 0.00 39 1019.2
20260502203300 19 261 6.4 6.4 0.00 0.03 0.00 38 1019.1
20260502200259 18 307 6.4 9.7 0.00 0.03 0.00 39 1019.7
20260502193258 17 279 8.0 8.0 0.00 0.03 0.00 41 1020.3
20260502190257 18 293 6.4 6.4 0.00 0.05 0.00 41 1020.4
20260502183256 17 343 4.8 4.8 0.00 0.08 0.00 42 1020.9
20260502180255 17 308 4.8 6.4 0.00 0.10 0.00 45 1021.4
20260502170253 16 232 6.4 6.4 0.00 0.13 0.00 50 1022.3
20260502163252 15 260 4.8 6.4 0.00 0.15 0.00 55 1022.8
20260502130245 8 11 6.4 6.4 0.00 0.43 0.00 78 1024.0
20260502123244 8 3 3.2 3.2 0.00 0.46 0.00 81 1023.9
20260502120243 8 1 4.8 4.8 0.00 0.46 0.00 81 1023.8
20260502113242 8 358 4.8 4.8 0.00 0.48 0.00 83 1023.6
20260502110241 8 343 6.4 6.4 0.00 0.51 0.00 84 1023.1
20260502103240 9 346 3.2 4.8 0.00 0.51 0.00 85 1022.7
20260502100239 9 343 0.0 1.6 0.00 0.51 0.00 80 1022.6
20260502090237 10 336 3.2 3.2 0.00 0.51 0.00 71 1021.8
20260502070233 10 162 0.0 0.0 0.00 0.53 0.00 74 1022.5
20260502063232 10 116 0.0 1.6 0.00 0.53 0.00 71 1022.3
20260502060231 10 49 0.0 0.0 0.00 0.53 0.00 73 1022.4
20260502053230 10 353 0.0 0.0 0.00 0.53 0.00 71 1022.4
20260502043228 10 14 1.6 4.8 0.00 0.53 0.53 77 1021.4
20260502040227 11 356 0.0 3.2 0.00 0.53 0.53 72 1021.0
20260502033226 11 316 0.0 0.0 0.00 0.53 0.53 69 1020.5
20260502030225 11 331 0.0 0.0 0.00 0.53 0.53 59 1019.4
20260502023224 12 131 0.0 3.2 0.00 0.53 0.53 53 1018.6
20260502020223 12 132 0.0 6.4 0.00 0.53 0.53 50 1018.3
20260502013222 12 360 0.0 0.0 0.00 0.53 0.53 53 1018.3
20260502010221 13 50 4.8 12.9 0.00 0.53 0.53 45 1018.0
20260502003220 13 47 1.6 4.8 0.00 0.53 0.53 49 1017.7
20260502000219 13 46 0.0 3.2 0.00 0.53 0.53 58 1017.6
20260501233218 12 97 0.0 1.6 0.00 0.53 0.53 62 1017.4
20260501230217 12 103 0.0 1.6 0.00 0.53 0.53 69 1017.3
20260501223216 12 53 0.0 3.2 0.00 0.51 0.51 79 1016.9